Time,TemperatureF,DewpointF,PressureIn,WindDirection,WindDirectionDegrees,WindSpeedMPH,WindSpeedGustMPH,Humidity,HourlyPrecipIn,Conditions,Clouds,dailyrainin,SoftwareType,DateUTC
2013-01-14 00:11:00,45.3,44.0,30.01,SW,231,0.0,-999.0,94,-99.99,,,0.00,weatherlink.com 1.10,2013-01-14 05:11:00,
2013-01-14 00:26:00,45.3,44.0,30.01,SW,231,0.0,-999.0,94,-99.99,,,0.00,weatherlink.com 1.10,2013-01-14 05:26:00,
2013-01-14 00:41:00,45.4,44.0,30.01,SW,231,3.0,-999.0,94,-99.99,,,0.01,weatherlink.com 1.10,2013-01-14 05:41:00,
2013-01-14 00:56:00,45.3,44.0,30.01,SW,231,0.0,-999.0,94,-99.99,,,0.01,weatherlink.com 1.10,2013-01-14 05:56:00,
2013-01-14 01:11:00,45.6,44.0,30.02,SW,228,0.0,-999.0,94,-99.99,,,0.01,weatherlink.com 1.10,2013-01-14 06:11:00,
2013-01-14 01:26:00,45.9,44.0,30.02,SW,214,3.0,-999.0,94,-99.99,,,0.01,weatherlink.com 1.10,2013-01-14 06:26:00,
2013-01-14 01:41:00,46.1,45.0,30.02,SW,214,0.0,-999.0,94,-99.99,,,0.01,weatherlink.com 1.10,2013-01-14 06:41:00,
2013-01-14 01:56:00,46.0,44.0,30.02,SW,214,0.0,-999.0,94,-99.99,,,0.01,weatherlink.com 1.10,2013-01-14 06:56:00,
2013-01-14 02:11:00,45.9,44.0,30.02,SW,214,0.0,-999.0,94,-99.99,,,0.01,weatherlink.com 1.10,2013-01-14 07:11:00,
2013-01-14 02:26:00,45.8,44.0,30.02,SSW,213,0.0,-999.0,94,-99.99,,,0.01,weatherlink.com 1.10,2013-01-14 07:26:00,
2013-01-14 02:41:00,45.7,44.0,30.02,SSW,213,0.0,-999.0,94,-99.99,,,0.01,weatherlink.com 1.10,2013-01-14 07:41:00,
2013-01-14 02:56:00,45.6,44.0,30.02,SW,214,2.0,-999.0,94,-99.99,,,0.01,weatherlink.com 1.10,2013-01-14 07:56:00,
2013-01-14 03:11:00,45.8,44.0,30.01,SW,214,0.0,-999.0,94,-99.99,,,0.01,weatherlink.com 1.10,2013-01-14 08:11:00,
2013-01-14 03:26:00,45.7,44.0,30.01,SW,214,0.0,-999.0,94,-99.99,,,0.01,weatherlink.com 1.10,2013-01-14 08:26:00,
2013-01-14 03:41:00,45.7,44.0,30.00,SW,214,0.0,-999.0,94,-99.99,,,0.01,weatherlink.com 1.10,2013-01-14 08:41:00,
2013-01-14 03:56:00,46.1,45.0,30.01,SSW,213,0.0,-999.0,94,-99.99,,,0.01,weatherlink.com 1.10,2013-01-14 08:56:00,
2013-01-14 04:11:00,46.0,44.0,30.01,SW,214,0.0,-999.0,94,-99.99,,,0.01,weatherlink.com 1.10,2013-01-14 09:11:00,
2013-01-14 04:26:00,46.1,45.0,30.00,SW,214,0.0,-999.0,94,-99.99,,,0.01,weatherlink.com 1.10,2013-01-14 09:26:00,
2013-01-14 04:41:00,46.1,45.0,30.00,SW,214,0.0,-999.0,94,-99.99,,,0.01,weatherlink.com 1.10,2013-01-14 09:41:00,
2013-01-14 04:56:00,46.1,45.0,30.00,SW,214,2.0,-999.0,94,-99.99,,,0.01,weatherlink.com 1.10,2013-01-14 09:56:00,
2013-01-14 05:11:00,46.2,45.0,30.00,SSW,213,1.0,-999.0,94,-99.99,,,0.01,weatherlink.com 1.10,2013-01-14 10:11:00,
2013-01-14 05:26:00,46.2,45.0,29.99,SW,214,0.0,-999.0,94,-99.99,,,0.01,weatherlink.com 1.10,2013-01-14 10:26:00,
2013-01-14 05:41:00,46.1,45.0,29.98,SW,214,0.0,-999.0,94,-99.99,,,0.01,weatherlink.com 1.10,2013-01-14 10:41:00,
2013-01-14 05:56:00,46.0,44.0,29.97,SW,214,1.0,-999.0,94,-99.99,,,0.01,weatherlink.com 1.10,2013-01-14 10:56:00,
2013-01-14 06:11:00,45.9,44.0,29.97,SSW,213,0.0,-999.0,94,-99.99,,,0.01,weatherlink.com 1.10,2013-01-14 11:11:00,
2013-01-14 06:26:00,46.1,45.0,29.90,South,177,1.0,-999.0,94,-99.99,,,0.03,weatherlink.com 1.10,2013-01-14 11:26:00,
2013-01-14 06:41:00,46.4,45.0,29.97,West,268,0.0,-999.0,94,-99.99,,,0.03,weatherlink.com 1.10,2013-01-14 11:41:00,
2013-01-14 06:56:00,46.8,45.0,29.98,WSW,241,0.0,-999.0,94,-99.99,,,0.03,weatherlink.com 1.10,2013-01-14 11:56:00,
2013-01-14 07:11:00,46.9,45.0,30.00,SW,232,4.0,-999.0,94,-99.99,,,0.03,weatherlink.com 1.10,2013-01-14 12:11:00,
2013-01-14 07:26:00,47.0,45.0,30.01,NNW,338,0.0,-999.0,94,-99.99,,,0.03,weatherlink.com 1.10,2013-01-14 12:26:00,
2013-01-14 07:41:00,47.0,45.0,30.01,WNW,295,0.0,-999.0,94,-99.99,,,0.03,weatherlink.com 1.10,2013-01-14 12:41:00,
2013-01-14 07:56:00,47.6,46.0,30.03,WSW,247,1.0,-999.0,94,-99.99,,,0.03,weatherlink.com 1.10,2013-01-14 12:56:00,
2013-01-14 08:11:00,48.2,47.0,30.02,SW,235,0.0,-999.0,94,-99.99,,,0.03,weatherlink.com 1.10,2013-01-14 13:11:00,
2013-01-14 08:26:00,48.4,47.0,30.03,SW,233,1.0,-999.0,94,-99.99,,,0.03,weatherlink.com 1.10,2013-01-14 13:26:00,
2013-01-14 08:41:00,48.3,47.0,30.03,SW,230,2.0,-999.0,94,-99.99,,,0.03,weatherlink.com 1.10,2013-01-14 13:41:00,
2013-01-14 08:56:00,48.5,47.0,30.03,SW,234,4.0,-999.0,94,-99.99,,,0.03,weatherlink.com 1.10,2013-01-14 13:56:00,
2013-01-14 09:11:00,48.6,47.0,30.04,SW,225,0.0,-999.0,94,-99.99,,,0.03,weatherlink.com 1.10,2013-01-14 14:11:00,
2013-01-14 09:26:00,48.9,47.0,30.04,WNW,297,1.0,-999.0,94,-99.99,,,0.03,weatherlink.com 1.10,2013-01-14 14:26:00,
2013-01-14 09:41:00,49.1,48.0,30.05,WNW,303,0.0,-999.0,94,-99.99,,,0.03,weatherlink.com 1.10,2013-01-14 14:41:00,
2013-01-14 09:56:00,49.1,48.0,30.06,NNE,29,0.0,-999.0,94,-99.99,,,0.03,weatherlink.com 1.10,2013-01-14 14:56:00,
2013-01-14 10:11:00,48.9,47.0,30.07,NNE,29,0.0,-999.0,94,-99.99,,,0.03,weatherlink.com 1.10,2013-01-14 15:11:00,
2013-01-14 10:26:00,49.0,47.0,30.08,NNE,29,0.0,-999.0,94,-99.99,,,0.03,weatherlink.com 1.10,2013-01-14 15:26:00,
2013-01-14 10:41:00,49.3,48.0,30.07,NNE,28,0.0,-999.0,94,-99.99,,,0.03,weatherlink.com 1.10,2013-01-14 15:41:00,
2013-01-14 10:56:00,49.6,48.0,30.06,NNE,29,0.0,-999.0,94,-99.99,,,0.03,weatherlink.com 1.10,2013-01-14 15:56:00,
2013-01-14 11:11:00,50.0,48.0,30.04,NNE,29,0.0,-999.0,94,-99.99,,,0.03,weatherlink.com 1.10,2013-01-14 16:11:00,
2013-01-14 11:26:00,50.3,49.0,30.05,North,354,3.0,-999.0,94,-99.99,,,0.03,weatherlink.com 1.10,2013-01-14 16:26:00,
2013-01-14 11:41:00,50.0,48.0,30.05,NNE,33,6.0,-999.0,94,-99.99,,,0.03,weatherlink.com 1.10,2013-01-14 16:41:00,
2013-01-14 11:56:00,50.3,49.0,30.06,WNW,301,6.0,-999.0,94,-99.99,,,0.03,weatherlink.com 1.10,2013-01-14 16:56:00,
2013-01-14 12:11:00,51.0,49.0,30.07,ESE,112,1.0,-999.0,94,-99.99,,,0.03,weatherlink.com 1.10,2013-01-14 17:11:00,
2013-01-14 12:26:00,51.0,49.0,30.07,NNW,339,5.0,-999.0,94,-99.99,,,0.03,weatherlink.com 1.10,2013-01-14 17:26:00,
2013-01-14 12:41:00,51.7,50.0,30.07,NNW,343,3.0,-999.0,93,-99.99,,,0.03,weatherlink.com 1.10,2013-01-14 17:41:00,
2013-01-14 12:56:00,53.0,48.0,30.07,North,349,10.0,-999.0,82,-99.99,,,0.03,weatherlink.com 1.10,2013-01-14 17:56:00,
2013-01-14 13:11:00,52.2,46.0,30.09,North,8,12.0,-999.0,78,-99.99,,,0.03,weatherlink.com 1.10,2013-01-14 18:11:00,
2013-01-14 13:26:00,49.5,43.0,30.09,ENE,59,11.0,-999.0,77,-99.99,,,0.03,weatherlink.com 1.10,2013-01-14 18:26:00,
2013-01-14 13:41:00,48.8,42.0,30.10,NE,44,6.0,-999.0,77,-99.99,,,0.03,weatherlink.com 1.10,2013-01-14 18:41:00,
2013-01-14 13:56:00,48.7,41.0,30.11,NE,54,5.0,-999.0,75,-99.99,,,0.03,weatherlink.com 1.10,2013-01-14 18:56:00,
2013-01-14 14:11:00,49.3,41.0,30.10,NNE,15,4.0,-999.0,73,-99.99,,,0.03,weatherlink.com 1.10,2013-01-14 19:11:00,
2013-01-14 14:26:00,49.4,41.0,30.12,NNE,24,6.0,-999.0,73,-99.99,,,0.03,weatherlink.com 1.10,2013-01-14 19:26:00,
2013-01-14 14:41:00,49.1,40.0,30.13,North,354,3.0,-999.0,71,-99.99,,,0.03,weatherlink.com 1.10,2013-01-14 19:41:00,
2013-01-14 14:56:00,48.9,39.0,30.13,NE,43,3.0,-999.0,69,-99.99,,,0.03,weatherlink.com 1.10,2013-01-14 19:56:00,
2013-01-14 15:11:00,48.8,38.0,30.13,ENE,59,4.0,-999.0,67,-99.99,,,0.03,weatherlink.com 1.10,2013-01-14 20:11:00,
2013-01-14 15:26:00,47.6,37.0,30.15,NNE,27,6.0,-999.0,66,-99.99,,,0.03,weatherlink.com 1.10,2013-01-14 20:26:00,
2013-01-14 15:41:00,46.5,36.0,30.15,NNE,25,4.0,-999.0,66,-99.99,,,0.03,weatherlink.com 1.10,2013-01-14 20:41:00,
2013-01-14 15:56:00,45.3,34.0,30.14,NE,45,9.0,-999.0,65,-99.99,,,0.03,weatherlink.com 1.10,2013-01-14 20:56:00,
2013-01-14 16:11:00,44.6,34.0,30.16,NNE,31,10.0,-999.0,66,-99.99,,,0.03,weatherlink.com 1.10,2013-01-14 21:11:00,
2013-01-14 16:26:00,43.9,32.0,30.18,NE,52,8.0,-999.0,63,-99.99,,,0.03,weatherlink.com 1.10,2013-01-14 21:26:00,
2013-01-14 16:41:00,43.2,31.0,30.18,NE,46,16.0,-999.0,62,-99.99,,,0.03,weatherlink.com 1.10,2013-01-14 21:41:00,
2013-01-14 16:56:00,42.6,29.0,30.18,North,11,4.0,-999.0,60,-99.99,,,0.03,weatherlink.com 1.10,2013-01-14 21:56:00,
2013-01-14 17:11:00,42.0,29.0,30.17,NE,48,2.0,-999.0,60,-99.99,,,0.03,weatherlink.com 1.10,2013-01-14 22:11:00,
2013-01-14 17:26:00,41.5,28.0,30.17,NNE,21,4.0,-999.0,60,-99.99,,,0.03,weatherlink.com 1.10,2013-01-14 22:26:00,
2013-01-14 17:41:00,41.1,28.0,30.18,NE,43,0.0,-999.0,60,-99.99,,,0.03,weatherlink.com 1.10,2013-01-14 22:41:00,
2013-01-14 17:56:00,40.8,28.0,30.18,NE,37,5.0,-999.0,60,-99.99,,,0.03,weatherlink.com 1.10,2013-01-14 22:56:00,
2013-01-14 18:11:00,40.4,28.0,30.18,NE,44,6.0,-999.0,62,-99.99,,,0.03,weatherlink.com 1.10,2013-01-14 23:11:00,
2013-01-14 18:26:00,40.0,28.0,30.19,NE,46,9.0,-999.0,63,-99.99,,,0.03,weatherlink.com 1.10,2013-01-14 23:26:00,
2013-01-14 18:41:00,39.8,28.0,30.20,NE,41,8.0,-999.0,63,-99.99,,,0.03,weatherlink.com 1.10,2013-01-14 23:41:00,
2013-01-14 18:56:00,39.5,27.0,30.21,NE,45,10.0,-999.0,61,-99.99,,,0.03,weatherlink.com 1.10,2013-01-14 23:56:00,
2013-01-14 19:11:00,39.2,27.0,30.23,North,354,9.0,-999.0,61,-99.99,,,0.03,weatherlink.com 1.10,2013-01-15 00:11:00,
2013-01-14 19:26:00,38.8,27.0,30.22,NE,54,9.0,-999.0,62,-99.99,,,0.03,weatherlink.com 1.10,2013-01-15 00:26:00,
2013-01-14 19:41:00,38.4,26.0,30.25,NE,36,6.0,-999.0,62,-99.99,,,0.03,weatherlink.com 1.10,2013-01-15 00:41:00,
2013-01-14 19:56:00,37.9,26.0,30.25,NE,51,13.0,-999.0,62,-99.99,,,0.03,weatherlink.com 1.10,2013-01-15 00:56:00,
2013-01-14 20:11:00,37.5,25.0,30.25,North,359,9.0,-999.0,62,-99.99,,,0.03,weatherlink.com 1.10,2013-01-15 01:11:00,
2013-01-14 20:26:00,37.1,25.0,30.26,NE,43,7.0,-999.0,62,-99.99,,,0.03,weatherlink.com 1.10,2013-01-15 01:26:00,
2013-01-14 20:41:00,36.7,25.0,30.25,NE,52,7.0,-999.0,63,-99.99,,,0.03,weatherlink.com 1.10,2013-01-15 01:41:00,
2013-01-14 20:56:00,36.3,25.0,30.26,NNE,25,7.0,-999.0,64,-99.99,,,0.03,weatherlink.com 1.10,2013-01-15 01:56:00,
2013-01-14 21:11:00,35.8,26.0,30.26,NNE,16,0.0,-999.0,68,-99.99,,,0.03,weatherlink.com 1.10,2013-01-15 02:11:00,
2013-01-14 21:26:00,35.3,26.0,30.25,NNE,29,3.0,-999.0,69,-99.99,,,0.03,weatherlink.com 1.10,2013-01-15 02:26:00,
2013-01-14 21:41:00,34.7,27.0,30.27,NNE,21,5.0,-999.0,72,-99.99,,,0.04,weatherlink.com 1.10,2013-01-15 02:41:00,
2013-01-14 21:56:00,34.6,26.0,30.28,North,10,7.0,-999.0,71,-99.99,,,0.04,weatherlink.com 1.10,2013-01-15 02:56:00,
2013-01-14 22:11:00,34.7,25.0,30.29,NE,40,8.0,-999.0,68,-99.99,,,0.04,weatherlink.com 1.10,2013-01-15 03:11:00,
2013-01-14 22:26:00,34.8,26.0,30.30,NNE,27,2.0,-999.0,69,-99.99,,,0.04,weatherlink.com 1.10,2013-01-15 03:26:00,
2013-01-14 22:41:00,34.8,25.0,30.30,NNE,16,4.0,-999.0,68,-99.99,,,0.04,weatherlink.com 1.10,2013-01-15 03:41:00,
2013-01-14 22:56:00,34.6,25.0,30.28,NE,35,6.0,-999.0,68,-99.99,,,0.04,weatherlink.com 1.10,2013-01-15 03:56:00,
2013-01-14 23:11:00,34.4,25.0,30.29,NNE,21,3.0,-999.0,69,-99.99,,,0.04,weatherlink.com 1.10,2013-01-15 04:11:00,
2013-01-14 23:26:00,34.2,25.0,30.28,NNE,31,6.0,-999.0,70,-99.99,,,0.04,weatherlink.com 1.10,2013-01-15 04:26:00,
2013-01-14 23:41:00,34.0,26.0,30.28,NE,47,5.0,-999.0,71,-99.99,,,0.04,weatherlink.com 1.10,2013-01-15 04:41:00,
2013-01-14 23:56:00,33.8,26.0,30.29,NE,43,4.0,-999.0,72,-99.99,,,0.04,weatherlink.com 1.10,2013-01-15 04:56:00,